Regional Weather Roundup
Issued by NWS

Home | Current Version | Previous Version | Text Only | Print | Product List | Glossary On
Versions: 1 2 3 4 5 6 7 8 9 10 11 12 13 14 15 16 17 18 19 20 21 22 23 24 25 26 27 28 29 30 31 32 33 34 35 36 37 38 39 40 41 42 43 44 45 46 47 48 49 50
000
ASUS42 KFFC 020103
RWRGA
WEATHER ROUNDUP FOR GEORGIA
NATIONAL WEATHER SERVICE PEACHTREE CITY GA
900 PM EDT WED APR 01 2015

NOTE: "FAIR" INDICATES FEW OR NO CLOUDS BELOW 12,000 FEET WITH NO
SIGNIFICANT WEATHER AND/OR OBSTRUCTIONS TO VISIBILITY.

* = USE WITH CAUTION. THE STATIONS MARKED WITH AN ASTERISK MAY NOT
REPORT WEATHER SUCH AS PRECIPITATION, FOG, OR THUNDER AND ARE NOT
QUALITY CONTROLLED BY NWS.

THE REMARK "TC" DENOTES TEMPERATURE READING IN DEGREES CELSIUS.

GAZ001>058-020200-
NORTH GEORGIA

CITY           SKY/WX    TMP DP  RH WIND       PRES   REMARKS
ATLANTA        PTCLDY    72  47  40 CALM      30.07R
ATHENS         PTCLDY    69  42  37 CALM      30.06R
CHAMBLEE       PTCLDY    64  41  42 CALM      30.07R
PEACHTREE CITY PTCLDY    65  58  78 CALM      30.08R
ROME           PTCLDY    69  42  37 CALM      30.05R
WEST ATLANTA   PTCLDY    67  48  50 CALM      30.06R
GAINESVILLE    PTCLDY    68  34  28 W6        30.09R
CARTERSVILLE   CLEAR     59  45  59 CALM      30.07R


CITY           SKY/WX    TMP DP  RH WIND       PRES   REMARKS
DALTON*        PTCLDY    63  43  48 CALM      30.06R
LAWRENCEVILLE* CLEAR     66  37  34 CALM      30.07R
MARIETTA       MOCLDY    66  46  48 CALM      30.07R
KENNESAW*      CLEAR     66  45  45 CALM      30.07R
$$

GAZ059>098-102>109-020200-
CENTRAL GEORGIA

CITY           SKY/WX    TMP DP  RH WIND       PRES   REMARKS
AUGUSTA-BUSH   CLEAR     68  47  46 SE7       30.09R
AUGUSTA-DANIEL CLEAR     72  46  39 E8        30.10R
COLUMBUS       PTCLDY    74  53  48 CALM      30.05R
MACON          CLEAR     67  57  70 CALM      30.06R
ROBINS AFB     CLEAR     68  59  73 SE1       30.07R


CITY           SKY/WX    TMP DP  RH WIND       PRES   REMARKS
LAGRANGE*      PTCLDY    67  60  78 CALM      30.06R
SYLVANIA*      PTCLDY    63  56  79 SE10G18   30.14R
MILLEDGEVILLE* CLEAR     64  59  82 CALM      30.06R
$$

GAZ099>101-110>166-020200-
SOUTH GEORGIA

CITY           SKY/WX    TMP DP  RH WIND       PRES   REMARKS
SAVANNAH       PTCLDY    61  55  81 E10       30.15R
VALDOSTA       CLEAR     71  62  73 SW3       30.08R
ALMA           CLEAR     65  57  75 CALM      30.08R
ST SIMONS      CLEAR     63  59  87 NE6       30.12R
FT STEWART     CLOUDY    63  58  85 E7        30.11R
ALBANY         CLEAR     71  56  58 CALM      30.07R HAZE
HUNTER AFB     MOCLDY    61  58  91 E10       30.12R
MOODY AFB      CLEAR     68  55  63 CALM      30.07R
BRUNSWICK      CLEAR     63  57  82 NE5       30.13R


CITY           SKY/WX    TMP DP  RH WIND       PRES   REMARKS
BAINBRIDGE*    CLEAR     77  63  61 SW8       30.07R
MOULTRIE*      CLEAR     68  57  68 CALM      30.08R
VIDALIA*       PTCLDY    70  59  68 S5        30.08R
WAYCROSS*      CLEAR     71  62  71 SE9       30.09R
DOUGLAS*       CLEAR     68  57  68 CALM      30.10R
$$


USA.gov is the U.S. government's official web portal to all federal, state and local government web resources and services.